Grand Junction, CO

7:11 PM MDT on October 22, 2019 (GMT -0600)
Walker

Weather History for KGJT - May, 2019

Change the Weather History Date:

Saturday, May 4, 2019

  Actual Average Record
Temperature  
Mean Temperature 58 °F 58 °F  
Max Temperature 73 °F 72 °F 93 °F (1947)
Min Temperature 42 °F 44 °F 34 °F (1964)
Degree Days  
Heating Degree Days 7 8  
Month to date heating degree days 57 33  
Since 1 July heating degree days 5454 5467  
Cooling Degree Days 0 1  
Month to date cooling degree days 0 1  
Year to date cooling degree days 1 4  
Growing Degree Days 8 (Base 50)    
Moisture  
Dew Point 32 °F    
Average Humidity 45    
Maximum Humidity 70    
Minimum Humidity 20    
Precipitation  
Precipitation 0.00 in 0.04 in 0.61 in (2003)
Month to date precipitation 0.03 0.13  
Year to date precipitation 5.08 3.08  
Snow  
Snow 0.00 in 0.00 in 0.00 in (2018)
Month to date snowfall 0.0 0.0  
Since 1 July snowfall 17.4 19.0  
Snow Depth 0.00 in    
Sea Level Pressure  
Sea Level Pressure 29.84 in    
Wind  
Wind Speed 8 mph (NE)    
Max Wind Speed 20 mph    
Max Gust Speed 26 mph    
Visibility 10 miles    
Events      
T = Trace of Precipitation, MM = Missing Value Source: NWS Daily Summary

Daily Weather History Graph

Daily Weather History Graph

Search for Another Location

Airport or City:

Astronomy

May. 04, 2019 Rise Set
Actual Time 6:12 AM MDT 8:09 PM MDT
Civil Twilight 5:43 AM MDT 8:39 PM MDT
Nautical Twilight 5:07 AM MDT 9:14 PM MDT
Astronomical Twilight 4:29 AM MDT 9:53 PM MDT
Moon 6:24 AM MDT (5/4) 8:03 PM MDT (5/4)
Length of Visible Light 14h 55m
Length of Day
13h 57m
Waning Crescent, 0% of the Moon is Illuminated
May 4
Waning Crescent
May 4
New
May 11
First Quarter
May 18
Full
May 26
Last Quarter

Hourly Weather History & Observations

Time (MDT) Temp. Windchill Dew Point Humidity Pressure Visibility Wind Dir Wind Speed Gust Speed Precip Events Conditions
12:53 AM 46.9 °F - 35.1 °F 63% 29.90 in 10.0 mi East 6.9 mph - N/A   Clear
1:53 AM 48.0 °F - 34.0 °F 58% 29.88 in 10.0 mi East 8.1 mph - N/A   Clear
2:53 AM 45.0 °F 40.6 °F 33.1 °F 63% 29.89 in 10.0 mi ESE 8.1 mph - N/A   Clear
3:53 AM 46.9 °F - 32.0 °F 56% 29.88 in 10.0 mi ESE 11.5 mph - N/A   Clear
4:53 AM 45.0 °F 39.3 °F 30.9 °F 58% 29.88 in 10.0 mi ESE 11.5 mph - N/A   Clear
5:53 AM 44.1 °F 38.6 °F 32.0 °F 63% 29.87 in 10.0 mi ESE 10.4 mph - N/A   Clear
6:53 AM 43.0 °F - 34.0 °F 71% 29.91 in 10.0 mi Calm Calm - N/A   Clear
7:53 AM 48.9 °F - 35.1 °F 59% 29.91 in 10.0 mi East 8.1 mph - N/A   Clear
8:53 AM 54.0 °F - 30.9 °F 41% 29.92 in 10.0 mi SSE 9.2 mph - N/A   Clear
9:53 AM 57.0 °F - 32.0 °F 39% 29.92 in 10.0 mi ESE 4.6 mph - N/A   Clear
10:53 AM 62.1 °F - 32.0 °F 32% 29.90 in 10.0 mi SE 5.8 mph - N/A   Clear
11:53 AM 64.9 °F - 28.9 °F 26% 29.88 in 10.0 mi Variable 3.5 mph - N/A   Clear
12:53 PM 68.0 °F - 27.0 °F 21% 29.85 in 10.0 mi NW 11.5 mph 18.4 mph N/A   Clear
1:53 PM 71.1 °F - 30.0 °F 22% 29.82 in 10.0 mi NW 9.2 mph 19.6 mph N/A   Clear
2:53 PM 72.0 °F - 28.9 °F 20% 29.80 in 10.0 mi NW 12.7 mph 23.0 mph N/A   Clear
3:53 PM 72.0 °F - 28.0 °F 20% 29.76 in 10.0 mi NNW 15.0 mph 25.3 mph N/A   Clear
4:53 PM 72.0 °F - 28.9 °F 20% 29.75 in 10.0 mi NW 13.8 mph 21.9 mph N/A   Clear
5:53 PM 71.1 °F - 30.0 °F 22% 29.75 in 10.0 mi NNW 17.3 mph 23.0 mph N/A   Clear
6:53 PM 69.1 °F - 28.9 °F 22% 29.77 in 10.0 mi NW 15.0 mph - N/A   Partly Cloudy
7:53 PM 64.0 °F - 32.0 °F 30% 29.76 in 10.0 mi NNW 8.1 mph - N/A   Clear
8:53 PM 59.0 °F - 35.1 °F 41% 29.78 in 10.0 mi NNE 4.6 mph - N/A   Clear
9:53 PM 60.1 °F - 34.0 °F 38% 29.78 in 10.0 mi Calm Calm - N/A   Partly Cloudy
10:53 PM 57.9 °F - 37.9 °F 47% 29.78 in 10.0 mi Calm Calm - N/A   Scattered Clouds
11:53 PM 57.9 °F - 37.0 °F 46% 29.78 in 10.0 mi Calm Calm - N/A   Overcast